Location: Esp�n
(42.4593°N, 0.2047°W)
Time: 23:48:06
(UTC+00:00)

STARLINK-70 - Visible Passes

Search period start: 01 October 2020 00:00
Search period end: 11 October 2020 00:00
Orbit: 441 x 444 km, 53.0° (Epoch: 01 October)

Date Brightness Start Highest point End Pass type
(mag) Time Alt. Az. Time Alt. Az. Time Alt. Az.
02 Oct 5.5 05:26:29 10° S 05:29:20 24° SE 05:32:12 10° ENE visible
03 Oct 5.9 04:47:08 10° S 04:49:24 16° SE 04:51:41 10° E visible
04 Oct 6.1 04:08:23 10° SE 04:09:30 11° SE 04:10:36 10° ESE visible
05 Oct 3.5 05:02:45 11° SW 05:06:07 63° SE 05:09:35 10° ENE visible
06 Oct 4.1 04:24:51 29° S 04:26:05 42° SE 04:29:25 10° ENE visible
07 Oct 5.1 03:46:49 26° ESE 03:46:49 26° ESE 03:49:10 10° ENE visible
07 Oct 3.9 05:20:16 13° W 05:23:11 39° NNW 05:26:31 10° NE visible
08 Oct 6.6 03:08:39 10° E 03:08:39 10° E 03:08:44 10° E visible
08 Oct 3.4 04:42:07 39° W 04:43:02 52° NNW 04:46:29 10° NE visible
09 Oct 4.1 04:03:51 45° NE 04:03:51 45° NE 04:06:26 10° NE visible
10 Oct 6.2 03:25:31 16° ENE 03:25:31 16° ENE 03:26:19 10° NE visible
10 Oct 4.8 04:58:57 18° NW 05:00:19 23° NNW 05:03:10 10° NE visible
